This demonstration page uses our WeatherBlox Daily Observations layout. Learn more.

41.55636, -103.73856

Hourly Observations for January 24, 2019

Temp ( °F °C ) Dew Point ( °F °C ) Humidity (%) Winds ( mph kmh ) Pressure ( in mb ) Visibility ( mi km ) Precip ( " mm )
12:58 am 00:58 Mostly Cloudy 27 -2.6 19 -7.5 69 69 NW 17 28 30.07 1018 10 16.0934 N/A
1:58 am 01:58 Mostly Cloudy 27 -2.6 19 -7.5 69 69 NW 23 37 30.09 1019 10 16.0934 N/A
2:58 am 02:58 Mostly Cloudy 27 -2.7 19 -7.4 70 70 NNW 17 28 30.09 1019 10 16.0934 N/A
3:58 am 03:58 Cloudy 27 -2.6 20 -6.8 73 73 NNW 14 22 30.08 1019 10 16.0934 N/A
4:58 am 04:58 Mostly Cloudy 27 -3 19 -7.3 73 73 NNW 15 24 30.11 1020 10 16.0934 N/A
5:58 am 05:58 Mostly Cloudy with Scattered Snow Showers 26 -3.5 19 -7 77 77 NNW 14 22 30.11 1020 10 16.0934 N/A
6:58 am 06:58 Cloudy with Light Snow 24 -4.3 21 -6.1 87 87 NNW 13 20 30.13 1020 2.5 4.02335 N/A
7:58 am 07:58 Mostly Cloudy with Scattered Snow Showers 24 -4.6 22 -5.8 91 91 NNW 12 19 30.14 1021 2.75 4.425685 N/A
8:58 am 08:58 Mostly Cloudy with Scattered Snow Showers 24 -4.6 22 -5.7 92 92 NNW 13 20 30.16 1021 5 8.0467 N/A
9:58 am 09:58 Mostly Cloudy with Scattered Snow Showers 24 -4.6 22 -5.6 93 93 NNW 14 22 30.16 1021 1 1.60934 N/A
10:58 am 10:58 Cloudy with Snow 20 -6.5 18 -7.6 92 92 N 23 37 30.18 1022 5 8.0467 N/A
11:58 am 11:58 Cloudy with Snow 17 -8.4 14 -9.9 89 89 NNE 15 24 30.27 1025 3 4.82802 N/A
12:58 pm 12:58 Cloudy with Light Snow 15 -9.4 13 -10.6 91 91 N 15 24 30.32 1027 0.75 1.207005 N/A
1:58 pm 13:58 Mostly Cloudy with Scattered Snow Showers 15 -9.6 12 -10.9 90 90 N 21 33 30.34 1027 1 1.60934 N/A
2:58 pm 14:58 Mostly Cloudy with Scattered Snow Showers 14 -10.1 11 -11.5 90 90 N 17 28 30.37 1028 2 3.21868 N/A
3:58 pm 15:58 Mostly Cloudy with Scattered Snow Showers 13 -10.4 11 -11.9 89 89 N 13 20 30.38 1029 10 16.0934 N/A
4:56 pm 16:56 Mostly Sunny 14 -10.2 9 -13 80 80 N 13 20 30.39 1029 10 16.0934 N/A
5:56 pm 17:56 Mostly Sunny 15 -9.5 9 -12.6 78 78 N 7 11 30.39 1029 10 16.0934 N/A
6:56 pm 18:56 Mostly Cloudy 15 -9.5 11 -11.4 86 86 WSW 7 11 30.38 1029 10 16.0934 N/A
7:56 pm 19:56 Mostly Sunny 16 -9.1 10 -12.1 79 79 W 9 15 30.34 1028 10 16.0934 N/A
8:58 pm 20:58 Sunny 17 -8.5 10 -12.1 76 76 WSW 10 17 30.29 1026 10 16.0934 N/A
9:58 pm 21:58 Sunny 19 -7.1 12 -11.3 72 72 WSW 13 20 30.27 1025 10 16.0934 N/A
10:58 pm 22:58 Mostly Cloudy 20 -6.4 12 -11.1 70 70 WSW 10 17 30.27 1025 10 16.0934 N/A
11:58 pm 23:58 Mostly Cloudy 19 -7.3 9 -13 64 64 WSW 10 17 30.27 1025 10 16.0934 N/A

Powered by AerisWeather